FW7184 Weather Reports


Display with metric or nautical units.
time (UTC)temp
F
wind
direction
speed
MPH
gust
MPH
rain 1hr
in
rain 24hr
in
rain mn
in
humidity
%
barometer
mb
20260906202943 74 192 0.0 1.0 0.00 0.00 0.00 57 1015.5
20260906202442 74 87 1.0 2.0 0.00 0.00 0.00 58 1015.7
20260906201937 74 140 1.0 1.0 0.00 0.00 0.00 58 1015.4
20260906201432 75 191 1.0 1.0 0.00 0.00 0.00 55 1015.5
20260906200927 75 196 1.0 1.0 0.00 0.00 0.00 55 1015.4
20260906200423 75 137 0.0 0.0 0.00 0.00 0.00 56 1015.5
20260906195917 76 31 5.0 6.0 0.00 0.00 0.00 55 1015.3
20260906195414 75 159 1.0 1.0 0.00 0.00 0.00 56 1015.5
20260906194909 75 172 1.0 2.0 0.00 0.00 0.00 55 1015.6
20260906194405 75 19 1.0 1.0 0.00 0.00 0.00 57 1015.3
20260906193859 77 32 1.0 1.0 0.00 0.00 0.00 58 1015.4
20260906193349 76 110 0.0 0.0 0.00 0.00 0.00 57 1015.5
20260906192845 76 185 2.0 2.0 0.00 0.00 0.00 56 1015.5
20260906192345 77 56 2.0 2.0 0.00 0.00 0.00 58 1015.2
20260906191844 76 201 0.0 0.0 0.00 0.00 0.00 58 1015.2
20260906191339 77 348 1.0 3.0 0.00 0.00 0.00 57 1015.6
20260906190838 76 229 0.0 1.0 0.00 0.00 0.00 59 1015.5
20260906190338 76 271 1.0 2.0 0.00 0.00 0.00 58 1015.3
20260906185833 76 273 0.0 1.0 0.00 0.00 0.00 58 1015.5
20260906185332 75 355 3.0 3.0 0.00 0.00 0.00 58 1015.5
20260906184827 75 354 3.0 3.0 0.00 0.00 0.00 58 1015.4
20260906184327 75 5 1.0 2.0 0.00 0.00 0.00 59 1015.3
20260906183822 75 191 0.0 0.0 0.00 0.00 0.00 59 1015.6
20260906183319 76 280 1.0 2.0 0.00 0.00 0.00 60 1015.5
20260906182819 75 191 1.0 1.0 0.00 0.00 0.00 60 1015.5
20260906182315 75 139 0.0 0.0 0.00 0.00 0.00 60 1015.6
20260906181814 75 191 0.0 0.0 0.00 0.00 0.00 59 1015.6
20260906181311 76 161 2.0 2.0 0.00 0.00 0.00 58 1015.6
20260906180806 75 211 0.0 1.0 0.00 0.00 0.00 59 1015.8
20260906180301 75 323 1.0 2.0 0.00 0.00 0.00 60 1015.7
20260906175758 75 180 0.0 1.0 0.00 0.00 0.00 61 1015.5
20260906175254 76 187 0.0 1.0 0.00 0.00 0.00 59 1015.7
20260906174752 75 239 1.0 1.0 0.00 0.00 0.00 63 1015.7
20260906174252 75 189 0.0 0.0 0.00 0.00 0.00 69 1015.7
20260906173747 74 19 3.0 5.0 0.00 0.00 0.00 65 1015.6
20260906173243 74 42 2.0 2.0 0.00 0.00 0.00 64 1015.6
20260906172742 72 202 0.0 0.0 0.00 0.00 0.00 71 1015.8
20260906172237 71 194 0.0 0.0 0.00 0.00 0.00 75 1015.9
20260906171732 71 193 0.0 0.0 0.00 0.00 0.00 72 1015.7
20260906171228 73 167 1.0 1.0 0.00 0.00 0.00 71 1015.8
20260906170723 73 188 1.0 1.0 0.00 0.00 0.00 70 1016.0
20260906170218 73 161 1.0 1.0 0.00 0.00 0.00 70 1016.0
20260906165715 73 180 0.0 0.0 0.00 0.00 0.00 70 1015.9
20260906165209 71 21 0.0 1.0 0.00 0.00 0.00 75 1016.0
20260906164709 71 186 1.0 1.0 0.00 0.00 0.00 75 1016.2
20260906164204 71 292 3.0 3.0 0.00 0.00 0.00 74 1016.2
20260906163700 72 163 1.0 2.0 0.00 0.00 0.00 74 1016.1
20260906163156 71 63 1.0 1.0 0.00 0.00 0.00 76 1016.1
20260906162653 70 196 0.0 1.0 0.00 0.00 0.00 78 1016.1
20260906162152 69 183 0.0 1.0 0.00 0.00 0.00 81 1016.3
20260906161647 69 191 0.0 0.0 0.00 0.00 0.00 80 1016.2
20260906161146 70 147 1.0 1.0 0.00 0.00 0.00 80 1016.2
20260906160645 70 61 1.0 2.0 0.00 0.00 0.00 78 1016.2
20260906160144 70 210 1.0 2.0 0.00 0.00 0.00 78 1016.1
20260906155642 70 204 0.0 1.0 0.00 0.00 0.00 79 1016.2
20260906155138 71 171 1.0 1.0 0.00 0.00 0.00 79 1016.1
20260906154633 71 156 1.0 1.0 0.00 0.00 0.00 76 1016.2
20260906154133 71 179 0.0 0.0 0.00 0.00 0.00 77 1016.3
20260906153631 69 187 0.0 1.0 0.00 0.00 0.00 81 1016.2
20260906153127 68 195 0.0 0.0 0.00 0.00 0.00 82 1016.4
20260906152621 68 207 1.0 1.0 0.00 0.00 0.00 82 1016.2
20260906152121 68 38 1.0 2.0 0.00 0.00 0.00 82 1016.1
20260906151615 68 283 1.0 2.0 0.00 0.00 0.00 81 1016.2
20260906151112 69 27 1.0 2.0 0.00 0.00 0.00 82 1016.2
20260906150607 70 75 0.0 0.0 0.00 0.00 0.00 82 1016.4
20260906145601 69 355 2.0 3.0 0.00 0.00 0.00 83 1016.2
20260906145056 68 201 0.0 0.0 0.00 0.00 0.00 83 1016.2
20260906144550 68 145 2.0 3.0 0.00 0.00 0.00 82 1016.2
20260906144045 68 178 0.0 0.0 0.00 0.00 0.00 83 1016.1
20260906143540 68 161 1.0 2.0 0.00 0.00 0.00 83 1016.2
20260906143032 68 181 0.0 1.0 0.00 0.00 0.00 83 1016.2
20260906142530 68 133 0.0 0.0 0.00 0.00 0.00 83 1016.2
20260906142026 68 152 1.0 1.0 0.00 0.00 0.00 83 1016.3
20260906141519 68 183 0.0 0.0 0.00 0.00 0.00 84 1016.0
20260906141015 67 196 0.0 0.0 0.00 0.00 0.00 84 1016.1
20260906140509 67 150 0.0 1.0 0.00 0.00 0.00 84 1015.7
20260906140008 67 295 2.0 2.0 0.00 0.00 0.00 84 1016.0
20260906135505 67 156 3.0 3.0 0.00 0.00 0.00 84 1015.8
20260906135001 67 177 0.0 1.0 0.00 0.00 0.00 85 1016.1
20260906134456 67 211 1.0 1.0 0.00 0.00 0.00 84 1016.0
20260906133956 67 290 1.0 2.0 0.00 0.00 0.00 84 1016.0
20260906133453 67 254 0.0 0.0 0.00 0.00 0.00 84 1015.9
20260906132948 67 315 1.0 1.0 0.00 0.00 0.00 84 1016.2
20260906132443 68 198 0.0 0.0 0.00 0.00 0.00 86 1015.8
20260906131938 67 120 0.0 0.0 0.00 0.00 0.00 85 1015.9
20260906131433 67 182 1.0 1.0 0.00 0.00 0.00 86 1016.0
20260906130929 66 27 3.0 5.0 0.00 0.00 0.00 87 1015.9
20260906130428 67 196 0.0 0.0 0.00 0.00 0.00 89 1015.7
20260906125923 66 292 2.0 2.0 0.00 0.00 0.00 89 1015.7
20260906125420 66 206 0.0 0.0 0.00 0.00 0.00 88 1015.7
20260906124920 66 0 2.0 2.0 0.00 0.00 0.00 89 1015.8
20260906124416 66 192 0.0 0.0 0.00 0.00 0.00 91 1015.8
20260906123910 65 241 1.0 1.0 0.00 0.00 0.00 91 1015.5
20260906123409 65 184 0.0 0.0 0.00 0.00 0.00 93 1015.7
20260906122904 65 201 0.0 0.0 0.00 0.00 0.00 92 1015.6
20260906122359 65 192 0.0 0.0 0.00 0.00 0.00 93 1015.8
20260906121856 64 202 0.0 1.0 0.00 0.00 0.00 94 1015.6
20260906121351 64 185 0.0 0.0 0.00 0.00 0.00 96 1015.7
20260906120847 64 192 0.0 0.0 0.00 0.00 0.00 96 1015.5
20260906120343 63 195 0.0 0.0 0.00 0.00 0.00 97 1015.4
20260906115839 63 195 0.0 0.0 0.00 0.00 0.00 96 1015.5
20260906115334 63 194 0.0 0.0 0.00 0.00 0.00 97 1015.6
20260906114833 63 170 0.0 0.0 0.00 0.00 0.00 97 1015.5
20260906114329 63 189 0.0 0.0 0.00 0.00 0.00 98 1015.4
20260906113824 62 187 0.0 0.0 0.00 0.00 0.00 99 1015.2
20260906113323 62 188 0.0 0.0 0.00 0.00 0.00 99 1015.2
20260906112818 62 192 0.0 0.0 0.00 0.00 0.00 99 1015.2
20260906112315 62 200 0.0 0.0 0.00 0.00 0.00 99 1015.2
20260906111814 62 283 0.0 0.0 0.00 0.00 0.00 99 1015.0
20260906111314 62 194 0.0 0.0 0.00 0.00 0.00 99 1015.1
20260906110809 62 193 0.0 0.0 0.00 0.00 0.00 99 1015.3
20260906110305 62 195 0.0 0.0 0.00 0.00 0.00 99 1014.9
20260906105804 62 201 0.0 0.0 0.00 0.00 0.00 99 1014.6
20260906105259 62 201 0.0 0.0 0.00 0.00 0.00 99 1014.9
20260906104755 62 209 0.0 0.0 0.00 0.00 0.00 99 1014.9
20260906104254 62 197 0.0 0.0 0.00 0.00 0.00 99 1014.5
20260906103752 62 208 0.0 0.0 0.00 0.00 0.00 99 1014.7
20260906103252 61 196 0.0 0.0 0.00 0.00 0.00 99 1014.6
20260906102748 61 201 0.0 0.0 0.00 0.00 0.00 99 1014.5
20260906102246 61 206 0.0 0.0 0.00 0.00 0.00 99 1014.5
20260906101742 61 200 0.0 0.0 0.00 0.00 0.00 99 1014.2
20260906101236 61 199 0.0 0.0 0.00 0.00 0.00 99 1014.2
20260906100732 62 201 0.0 0.0 0.00 0.00 0.00 99 1014.3
20260906100231 62 197 0.0 0.0 0.00 0.00 0.00 99 1013.9
20260906095726 62 202 0.0 0.0 0.00 0.00 0.00 99 1014.1
20260906095216 62 197 0.0 0.0 0.00 0.00 0.00 99 1014.0
20260906094714 62 197 0.0 0.0 0.00 0.00 0.00 99 1013.8
20260906094210 63 191 0.0 0.0 0.00 0.00 0.00 99 1014.0
20260906093707 63 196 0.0 0.0 0.00 0.00 0.00 99 1013.8
20260906093202 63 195 0.0 0.0 0.00 0.00 0.00 99 1014.1
20260906092657 63 217 0.0 0.0 0.00 0.00 0.00 99 1014.1
20260906092156 63 185 0.0 0.0 0.00 0.00 0.00 99 1014.1
20260906091653 63 196 0.0 0.0 0.00 0.00 0.00 99 1013.7
20260906091149 63 193 0.0 0.0 0.00 0.00 0.00 99 1013.8
20260906090645 63 195 0.0 0.0 0.00 0.00 0.00 99 1014.0
20260906090144 63 202 0.0 0.0 0.00 0.00 0.00 99 1013.8
20260906085643 63 206 0.0 0.0 0.00 0.00 0.00 99 1013.6
20260906085138 63 201 0.0 0.0 0.00 0.00 0.00 99 1013.6
20260906084638 63 204 0.0 0.0 0.00 0.00 0.00 99 1013.6
20260906084137 63 203 0.0 0.0 0.00 0.00 0.00 99 1013.4
20260906083632 63 196 0.0 0.0 0.00 0.00 0.00 99 1013.6
20260906083127 63 194 0.0 0.0 0.00 0.00 0.00 99 1013.5
20260906082623 63 198 0.0 0.0 0.00 0.00 0.00 99 1013.3
20260906082118 63 195 0.0 0.0 0.00 0.00 0.00 99 1013.3
20260906081614 63 200 0.0 0.0 0.00 0.00 0.00 99 1013.3
20260906081108 63 194 0.0 0.0 0.00 0.00 0.00 99 1013.3
20260906080606 62 190 0.0 0.0 0.00 0.00 0.00 99 1013.3
20260906075555 62 198 0.0 0.0 0.00 0.00 0.00 99 1013.2
20260906075050 62 198 0.0 0.0 0.00 0.00 0.00 99 1013.3
20260906074545 62 198 0.0 0.0 0.00 0.00 0.00 99 1013.5
20260906074043 62 204 0.0 0.0 0.00 0.00 0.00 99 1013.5
20260906073538 62 193 0.0 0.0 0.00 0.00 0.00 99 1013.3
20260906073034 61 196 0.0 0.0 0.00 0.00 0.00 99 1013.2
20260906072529 61 193 0.0 0.0 0.00 0.00 0.00 99 1013.2
20260906072025 61 195 0.0 0.0 0.00 0.00 0.00 99 1013.4
20260906071521 61 197 0.0 0.0 0.00 0.00 0.00 99 1013.4
20260906071016 61 202 0.0 0.0 0.00 0.00 0.00 99 1013.3
20260906070512 61 184 0.0 0.0 0.00 0.00 0.00 99 1013.4
20260906070008 60 198 0.0 0.0 0.00 0.00 0.00 99 1013.4
20260906065502 60 200 0.0 0.0 0.00 0.00 0.00 99 1013.4
20260906064957 60 200 0.0 0.0 0.00 0.00 0.00 99 1013.4
20260906064453 60 204 0.0 0.0 0.00 0.00 0.00 99 1013.3
20260906063948 60 196 0.0 0.0 0.00 0.00 0.00 99 1013.6
20260906063444 61 199 0.0 0.0 0.00 0.00 0.00 99 1013.7
20260906062943 61 194 0.0 0.0 0.00 0.00 0.00 99 1013.6
20260906062439 60 194 0.0 0.0 0.00 0.00 0.00 99 1013.6
20260906061933 60 196 0.0 0.0 0.00 0.00 0.00 99 1013.6
20260906061430 61 200 0.0 0.0 0.00 0.00 0.00 99 1013.6
20260906060924 61 196 0.0 0.0 0.00 0.00 0.00 99 1014.0
20260906060421 61 195 0.0 0.0 0.00 0.00 0.00 99 1013.7
20260906055917 61 196 0.0 0.0 0.00 0.00 0.00 99 1013.8
20260906055413 61 193 0.0 0.0 0.00 0.00 0.00 99 1013.6
20260906054908 61 196 0.0 0.0 0.00 0.00 0.00 99 1013.6
20260906054403 61 196 0.0 0.0 0.00 0.00 0.00 99 1013.5
20260906053859 61 197 0.0 0.0 0.00 0.00 0.00 99 1013.2
20260906053354 62 198 0.0 0.0 0.00 0.00 0.00 99 1013.6
20260906052850 62 199 0.0 0.0 0.00 0.00 0.00 99 1013.7
20260906052346 62 195 0.0 0.0 0.00 0.00 0.00 98 1013.6
20260906051843 62 194 0.0 0.0 0.00 0.00 0.00 98 1013.7
20260906051342 62 197 0.0 0.0 0.00 0.00 0.00 98 1013.5
20260906050839 62 197 0.0 1.0 0.00 0.00 0.00 98 1013.6
20260906050333 62 190 0.0 0.0 0.00 0.00 0.00 98 1013.5
20260906045832 62 196 0.0 0.0 0.00 0.00 0.00 98 1013.6
20260906045326 62 196 0.0 0.0 0.00 0.00 0.00 98 1013.6
20260906044823 62 196 0.0 0.0 0.00 0.00 0.00 98 1013.7
20260906044323 62 194 0.0 0.0 0.00 0.00 0.00 98 1013.6
20260906043819 62 190 0.0 0.0 0.00 0.00 0.00 97 1013.8
20260906043315 62 196 0.0 0.0 0.00 0.00 0.00 97 1013.5
20260906042814 63 199 0.0 0.0 0.00 0.00 0.00 97 1013.6
20260906042314 63 185 0.0 0.0 0.00 0.00 0.00 97 1013.6
20260906041809 63 194 0.0 0.0 0.00 0.00 0.00 97 1013.5
20260906041304 63 198 0.0 0.0 0.00 0.00 0.00 97 1013.6
20260906040759 63 194 0.0 0.0 0.00 0.00 0.00 97 1013.7
20260906040255 63 191 0.0 0.0 0.00 0.00 0.00 97 1013.6
20260906035750 63 187 0.0 0.0 0.00 0.00 0.00 97 1013.5
20260906035246 63 191 0.0 0.0 0.00 0.00 0.00 97 1013.3
20260906034746 63 184 0.0 0.0 0.00 0.00 0.00 97 1013.4
20260906034240 63 196 0.0 0.0 0.00 0.00 0.00 97 1013.5
20260906033736 63 190 0.0 0.0 0.00 0.00 0.00 97 1013.3
20260906033236 63 195 0.0 0.0 0.00 0.00 0.00 97 1013.4
20260906032733 63 194 0.0 0.0 0.00 0.00 0.00 96 1013.4
20260906032232 63 193 0.0 0.0 0.00 0.00 0.00 96 1013.3
20260906031728 63 182 0.0 0.0 0.00 0.00 0.00 96 1013.3
20260906031223 63 196 0.0 0.0 0.00 0.00 0.00 96 1013.0
20260906030723 63 190 0.0 0.0 0.00 0.00 0.00 95 1013.1
20260906030218 64 188 0.0 0.0 0.00 0.00 0.00 95 1012.9
20260906025717 64 189 0.0 0.0 0.00 0.00 0.00 94 1013.1
20260906025212 64 188 0.0 0.0 0.00 0.00 0.00 94 1013.0
20260906024711 64 194 0.0 0.0 0.00 0.00 0.00 93 1013.1
20260906024210 64 196 0.0 0.0 0.00 0.00 0.00 93 1013.2
20260906023706 64 194 0.0 0.0 0.00 0.00 0.00 92 1013.1
20260906023201 64 196 0.0 0.0 0.00 0.00 0.00 92 1013.1
20260906022656 65 191 0.0 0.0 0.00 0.00 0.00 91 1013.0
20260906022152 65 197 0.0 0.0 0.00 0.00 0.00 90 1013.3
20260906021647 66 196 0.0 0.0 0.00 0.00 0.00 89 1013.0
20260906021146 66 187 0.0 0.0 0.00 0.00 0.00 88 1013.3
20260906020641 66 196 0.0 0.0 0.00 0.00 0.00 87 1013.1
20260906020136 67 195 0.0 0.0 0.00 0.00 0.00 86 1013.1
20260906015630 67 197 0.0 0.0 0.00 0.00 0.00 85 1012.9
20260906015128 67 198 0.0 0.0 0.00 0.00 0.00 84 1013.0
20260906014623 68 197 0.0 0.0 0.00 0.00 0.00 84 1012.8
20260906014120 68 196 0.0 0.0 0.00 0.00 0.00 84 1013.1
20260906013614 68 194 0.0 0.0 0.00 0.00 0.00 82 1012.8
20260906013110 68 189 0.0 0.0 0.00 0.00 0.00 82 1012.7
20260906012604 68 188 0.0 1.0 0.00 0.00 0.00 82 1012.9
20260906012059 68 293 0.0 0.0 0.00 0.00 0.00 82 1012.6
20260906011555 68 251 1.0 1.0 0.00 0.00 0.00 82 1012.8
20260906011055 68 181 0.0 0.0 0.00 0.00 0.00 83 1012.7
20260906010550 68 188 0.0 0.0 0.00 0.00 0.00 83 1012.7
20260906010046 68 186 0.0 0.0 0.00 0.00 0.00 83 1012.7
20260906005540 68 197 0.0 0.0 0.00 0.00 0.00 82 1012.5
20260906005039 68 188 0.0 0.0 0.00 0.00 0.00 82 1012.4
20260906004538 68 189 0.0 0.0 0.00 0.00 0.00 82 1012.5
20260906004033 68 189 0.0 0.0 0.00 0.00 0.00 81 1012.5
20260906003528 69 180 0.0 0.0 0.00 0.00 0.00 80 1012.5
20260906003024 69 177 0.0 0.0 0.00 0.00 0.00 81 1012.5
20260906002519 68 194 0.0 1.0 0.00 0.00 0.00 81 1012.5
20260906002014 68 175 0.0 1.0 0.00 0.00 0.00 82 1012.5
20260906001509 68 177 1.0 1.0 0.00 0.00 0.00 81 1012.4
20260906001003 68 190 0.0 0.0 0.00 0.00 0.00 82 1012.1
20260906000459 69 176 0.0 0.0 0.00 0.00 0.00 81 1012.1
20260905235954 69 181 0.0 0.0 0.00 0.00 0.00 81 1012.1
20260905235454 69 187 0.0 0.0 0.00 0.00 0.00 80 1012.2
20260905234949 69 173 0.0 0.0 0.00 0.00 0.00 80 1011.8
20260905234445 69 186 1.0 1.0 0.00 0.00 0.00 79 1011.8
20260905233944 70 166 0.0 0.0 0.00 0.00 0.00 78 1012.2
20260905233434 70 186 0.0 0.0 0.00 0.00 0.00 77 1011.6
20260905232933 70 143 0.0 1.0 0.00 0.00 0.00 77 1012.0
20260905232429 71 242 1.0 1.0 0.00 0.00 0.00 76 1011.9
20260905231924 71 189 0.0 0.0 0.00 0.00 0.00 76 1012.0
20260905231420 71 168 0.0 1.0 0.00 0.00 0.00 75 1011.9
20260905230917 72 222 0.0 1.0 0.00 0.00 0.00 74 1011.8
20260905230414 72 186 0.0 0.0 0.00 0.00 0.00 73 1011.7
20260905225913 72 339 3.0 3.0 0.00 0.00 0.00 73 1011.9
20260905225409 73 30 1.0 1.0 0.00 0.00 0.00 72 1011.6
20260905224903 73 210 0.0 1.0 0.00 0.00 0.00 72 1011.6
20260905224400 73 255 0.0 0.0 0.00 0.00 0.00 71 1011.2
20260905223854 74 206 1.0 1.0 0.00 0.00 0.00 70 1011.5
20260905223352 74 325 1.0 2.0 0.00 0.00 0.00 69 1011.5
20260905222851 74 165 2.0 2.0 0.00 0.00 0.00 68 1011.3
20260905222350 74 189 0.0 0.0 0.00 0.00 0.00 68 1011.3
20260905221847 75 29 2.0 2.0 0.00 0.00 0.00 67 1011.2
20260905221343 75 165 1.0 2.0 0.00 0.00 0.00 65 1011.5
20260905220839 75 8 3.0 6.0 0.00 0.00 0.00 66 1011.2
20260905220335 76 24 2.0 2.0 0.00 0.00 0.00 66 1011.2
20260905215834 76 18 2.0 3.0 0.00 0.00 0.00 66 1011.3
20260905215330 76 28 2.0 2.0 0.00 0.00 0.00 65 1011.1
20260905214827 76 163 0.0 1.0 0.00 0.00 0.00 65 1011.1
20260905214321 76 166 0.0 1.0 0.00 0.00 0.00 64 1010.9
20260905213816 76 305 1.0 1.0 0.00 0.00 0.00 64 1011.0
20260905213312 77 178 0.0 0.0 0.00 0.00 0.00 67 1011.1
20260905212807 77 189 0.0 0.0 0.00 0.00 0.00 64 1011.2
20260905212307 77 267 1.0 1.0 0.00 0.00 0.00 64 1011.2
20260905211801 77 123 0.0 1.0 0.00 0.00 0.00 63 1011.0
20260905211256 77 357 2.0 2.0 0.00 0.00 0.00 64 1010.8
20260905210753 77 199 1.0 1.0 0.00 0.00 0.00 62 1010.9
20260905210252 77 187 2.0 2.0 0.00 0.00 0.00 62 1010.8
20260905205751 77 263 0.0 0.0 0.00 0.00 0.00 62 1011.0
20260905205246 77 220 0.0 1.0 0.00 0.00 0.00 63 1010.9
20260905204745 77 35 2.0 2.0 0.00 0.00 0.00 64 1010.7
20260905204242 77 181 0.0 0.0 0.00 0.00 0.00 64 1010.8
20260905203741 77 316 2.0 3.0 0.00 0.00 0.00 62 1010.6